Change the Weather History Date:

Saturday, January 11, 2014

  Actual Average Record
Temperature  
Mean Temperature 40 °F -  
Max Temperature 45 °F 28 °F 57 °F (1975)
Min Temperature 36 °F 16 °F -3 °F (1982)
Degree Days  
Heating Degree Days 24    
Moisture  
Dew Point 38 °F    
Average Humidity 86    
Maximum Humidity 93    
Minimum Humidity 67    
Precipitation  
Precipitation 0.17 in - - ()
Sea Level Pressure  
Sea Level Pressure 29.45 in    
Wind  
Wind Speed 11 mph (SW)    
Max Wind Speed 16 mph    
Max Gust Speed 28 mph    
Visibility 5 miles    
Events Fog , Rain    
Averages and records for this station are not official NWS values.
T = Trace of Precipitation, MM = Missing Value Source: NWS Daily Summary

Daily Weather History Graph

Daily Weather History Graph

Search for Another Location

Airport or City:

Trip Planner

Search our weather history database for the weather conditions in past years. The results will help you decide how hot, cold, wet, or windy it might be!

Date:

Astronomy

Jan. 11, 2014 Rise Set
Actual Time 8:00 AM EST 5:20 PM EST
Civil Twilight 7:28 AM EST 5:51 PM EST
Nautical Twilight 6:54 AM EST 6:26 PM EST
Astronomical Twilight 6:20 AM EST 7:00 PM EST
Moon 2:04 PM EST (1/11) 4:02 AM EST (1/11)
Length of Visible Light 10h 22m
Length of Day
9h 19m
Waxing Gibbous, 83% of the Moon is Illuminated
Jan 11
Waxing Gibbous
Jan 15
Full
Jan 24
Last Quarter
Jan 30
New
Feb 6
First Quarter

Hourly Weather History & Observations

Time (EST) Temp. Windchill Dew Point Humidity Pressure Visibility Wind Dir Wind Speed Gust Speed Precip Events Conditions
12:53 AM 41.0 °F 35.2 °F 37.9 °F 89% 29.65 in 4.0 mi SSE 9.2 mph - 0.04 in Rain Light Rain
1:53 AM 43.0 °F 36.4 °F 39.9 °F 89% 29.62 in 6.0 mi SSW 12.7 mph - 0.04 in Rain Light Rain
2:32 AM 44.6 °F 38.4 °F 41.0 °F 87% 29.59 in 6.0 mi South 12.7 mph - 0.01 in Rain Light Rain
2:53 AM 44.1 °F 37.4 °F 41.0 °F 89% 29.59 in 7.0 mi South 13.8 mph 20.7 mph 0.02 in   Overcast
3:53 AM 44.1 °F 39.5 °F 41.0 °F 89% 29.56 in 4.0 mi SSW 8.1 mph - 0.00 in   Overcast
4:21 AM 44.6 °F 38.4 °F 41.0 °F 87% 29.53 in 2.5 mi SSW 12.7 mph - 0.00 in Rain Light Rain
4:31 AM 42.8 °F 36.6 °F 39.2 °F 87% 29.52 in 3.0 mi SSW 11.5 mph - 0.00 in Rain Light Rain
4:53 AM 43.0 °F 37.2 °F 39.9 °F 89% 29.53 in 2.5 mi SSW 10.4 mph - 0.00 in   Overcast
5:05 AM 42.8 °F 37.0 °F 39.2 °F 87% 29.51 in 3.0 mi SSW 10.4 mph - N/A   Overcast
5:37 AM 42.8 °F 37.5 °F 39.2 °F 87% 29.50 in 4.0 mi SSW 9.2 mph - N/A   Overcast
5:53 AM 43.0 °F 37.2 °F 41.0 °F 93% 29.50 in 2.5 mi SSW 10.4 mph - N/A   Overcast
6:25 AM 42.8 °F 37.5 °F 41.0 °F 93% 29.49 in 1.5 mi SSW 9.2 mph - N/A   Overcast
6:46 AM 44.6 °F 38.4 °F 41.0 °F 87% 29.47 in 0.8 mi SSW 12.7 mph 19.6 mph N/A   Overcast
6:53 AM 43.0 °F 37.7 °F 41.0 °F 93% 29.47 in 0.8 mi South 9.2 mph 19.6 mph N/A   Overcast
7:12 AM 42.8 °F 37.5 °F 41.0 °F 93% 29.44 in 1.0 mi South 9.2 mph - N/A   Overcast
7:44 AM 44.6 °F 38.1 °F 42.8 °F 93% 29.43 in 2.0 mi SSW 13.8 mph - N/A   Overcast
7:53 AM 44.1 °F 37.4 °F 41.0 °F 89% 29.44 in 1.2 mi SSW 13.8 mph - N/A   Overcast
8:09 AM 42.8 °F 37.0 °F 41.0 °F 93% 29.43 in 0.8 mi SW 10.4 mph - N/A   Overcast
8:21 AM 42.8 °F 36.6 °F 41.0 °F 93% 29.42 in 0.5 mi SSW 11.5 mph - N/A Fog Fog
8:34 AM 42.8 °F 37.5 °F 41.0 °F 93% 29.42 in 0.2 mi SSW 9.2 mph - N/A Fog Fog
8:53 AM 42.1 °F 37.1 °F 39.9 °F 92% 29.43 in 0.2 mi SSW 8.1 mph - N/A Fog Fog
9:43 AM 42.8 °F 38.6 °F 39.2 °F 87% 29.38 in 0.5 mi South 6.9 mph - 0.02 in Fog , Rain Light Rain
9:53 AM 43.0 °F 38.2 °F 39.9 °F 89% 29.40 in 0.8 mi South 8.1 mph - 0.02 in Rain Light Rain
10:00 AM 42.8 °F 37.5 °F 39.2 °F 87% 29.39 in 1.0 mi South 9.2 mph - 0.00 in   Overcast
10:07 AM 42.8 °F 37.5 °F 39.2 °F 87% 29.38 in 0.8 mi South 9.2 mph - 0.00 in Rain Light Rain
10:27 AM 42.8 °F 38.0 °F 41.0 °F 93% 29.36 in 1.5 mi SSW 8.1 mph - 0.04 in Rain Light Rain
10:32 AM 42.8 °F 37.5 °F 41.0 °F 93% 29.36 in 3.0 mi SW 9.2 mph - 0.04 in Rain Light Rain
10:53 AM 43.0 °F 38.2 °F 41.0 °F 93% 29.37 in 2.0 mi SW 8.1 mph - 0.04 in Rain Light Rain
11:00 AM 42.8 °F 38.0 °F 39.2 °F 87% 29.36 in 1.5 mi SW 8.1 mph - 0.00 in   Overcast
11:41 AM 42.8 °F 38.0 °F 41.0 °F 93% 29.34 in 2.0 mi WSW 8.1 mph - 0.01 in Rain Light Rain
11:53 AM 44.1 °F 39.0 °F 41.0 °F 89% 29.35 in 4.0 mi WSW 9.2 mph - 0.01 in   Overcast
12:06 PM 44.6 °F 39.7 °F 41.0 °F 87% 29.33 in 4.0 mi SW 9.2 mph - N/A   Overcast
12:26 PM 44.6 °F 38.4 °F 41.0 °F 87% 29.31 in 10.0 mi WSW 12.7 mph - N/A   Overcast
12:53 PM 45.0 °F 38.9 °F 41.0 °F 86% 29.30 in 10.0 mi West 12.7 mph - N/A   Overcast
1:53 PM 44.1 °F 38.1 °F 39.9 °F 85% 29.31 in 10.0 mi West 11.5 mph - N/A   Overcast
2:53 PM 43.0 °F 35.4 °F 37.9 °F 82% 29.33 in 10.0 mi West 16.1 mph 24.2 mph 0.00 in Rain Light Rain
3:17 PM 42.8 °F 35.8 °F 37.4 °F 81% 29.34 in 8.0 mi West 13.8 mph 25.3 mph 0.00 in Rain Light Rain
3:25 PM 42.8 °F 37.0 °F 37.4 °F 81% 29.34 in 9.0 mi West 10.4 mph 18.4 mph 0.00 in Rain Light Rain
3:53 PM 41.0 °F 34.3 °F 35.1 °F 79% 29.37 in 10.0 mi West 11.5 mph 21.9 mph 0.00 in   Overcast
4:53 PM 37.9 °F 29.6 °F 33.1 °F 83% 29.42 in 8.0 mi West 13.8 mph 24.2 mph 0.00 in Rain Light Rain
5:01 PM 37.4 °F 28.9 °F 33.8 °F 87% 29.41 in 10.0 mi West 13.8 mph 24.2 mph 0.00 in   Overcast
5:53 PM 37.9 °F 28.9 °F 30.0 °F 73% 29.46 in 10.0 mi West 16.1 mph 25.3 mph 0.00 in   Overcast
6:53 PM 37.9 °F 30.0 °F 30.9 °F 76% 29.49 in 10.0 mi West 12.7 mph 23.0 mph N/A   Overcast
7:53 PM 37.0 °F 27.7 °F 28.9 °F 73% 29.53 in 10.0 mi WNW 16.1 mph 21.9 mph N/A   Overcast
8:53 PM 36.0 °F 27.1 °F 28.0 °F 73% 29.57 in 10.0 mi WNW 13.8 mph 27.6 mph N/A   Overcast
9:53 PM 36.0 °F 29.0 °F 27.0 °F 70% 29.60 in 10.0 mi WNW 9.2 mph 23.0 mph N/A   Overcast
10:53 PM 36.0 °F 28.5 °F 27.0 °F 70% 29.63 in 10.0 mi West 10.4 mph 19.6 mph N/A   Overcast
11:53 PM 36.0 °F 28.5 °F 26.1 °F 67% 29.64 in 10.0 mi West 10.4 mph 21.9 mph N/A   Overcast